Location: The Saddle
(36.8333°N, 80.3417°W)
Time: 12:28:01
(UTC-04:00)

Courier 1B - Pass Details

Date: 22 September 2024
Orbit: 962 x 1208 km, 28.3° (Epoch: 06 October)

Event Time Altitude Azimuth Distance (km) Brightness Sun altitude
Rises 13:49:41 0° 250° (WSW) 3,693 10.8 52.2°
Reaches altitude 10° 13:52:26 10° 243° (WSW) 2,772 10.4 52.0°
Maximum altitude 13:58:42 41° 176° (S) 1,465 10.2 51.6°
Drops below altitude 10° 14:05:19 10° 108° (ESE) 2,937 10.1 51.2°
Sets 14:08:19 0° 102° (ESE) 3,935 10.6 51.0°
